This is the latest recevied weather packets stored in our database for station/object SP3OTE-2. If no packets are shown the sender has not sent any weather packets the latest 10 day(s).
| Time | Temp. | Humidity | Pressure | Rain* | Wind** | Luminosity | Snow |
|---|---|---|---|---|---|---|---|
| 1777827946 | 32.78° C | 25% | 1013.3 hPa | - | - | - | - |
| 1777827345 | 33.33° C | 25% | 1013.2 hPa | - | - | - | - |
| 1777826745 | 33.89° C | 24% | 1013.2 hPa | - | - | - | - |
| 1777826145 | 33.33° C | 24% | 1013.2 hPa | - | - | - | - |
| 1777825545 | 33.89° C | 24% | 1013.2 hPa | - | - | - | - |
| 1777824944 | 35° C | 24% | 1013.3 hPa | - | - | - | - |
| 1777824344 | 35° C | 23% | 1013.3 hPa | - | - | - | - |
| 1777823744 | 35° C | 23% | 1013.4 hPa | - | - | - | - |
| 1777823143 | 34.44° C | 23% | 1013.4 hPa | - | - | - | - |
| 1777822542 | 35° C | 23% | 1013.5 hPa | - | - | - | - |
| 1777821942 | 34.44° C | 23% | 1013.5 hPa | - | - | - | - |
| 1777821342 | 33.89° C | 23% | 1013.6 hPa | - | - | - | - |
| 1777820742 | 34.44° C | 25% | 1013.6 hPa | - | - | - | - |
| 1777820141 | 34.44° C | 23% | 1013.7 hPa | - | - | - | - |
| 1777819541 | 33.89° C | 23% | 1013.8 hPa | - | - | - | - |
| 1777818941 | 33.33° C | 25% | 1014 hPa | - | - | - | - |
| 1777818341 | 32.78° C | 24% | 1014.1 hPa | - | - | - | - |
| 1777817740 | 33.33° C | 25% | 1014.2 hPa | - | - | - | - |
| 1777817140 | 32.78° C | 25% | 1014.4 hPa | - | - | - | - |
| 1777816540 | 32.22° C | 24% | 1014.5 hPa | - | - | - | - |
| 1777815939 | 32.78° C | 24% | 1014.7 hPa | - | - | - | - |
| 1777815339 | 31.67° C | 26% | 1014.8 hPa | - | - | - | - |
| 1777814739 | 32.22° C | 26% | 1014.9 hPa | - | - | - | - |
| 1777814139 | 31.67° C | 26% | 1015 hPa | - | - | - | - |
| 1777813539 | 30.56° C | 27% | 1015.1 hPa | - | - | - | - |
* Rain since midnight (hover to see other rain measurements)
** Current wind speed in m/s (hover to see current wind gust speed)